C/2003 H2 ( LINEAR )

Japanese version
Home page
Updated on August 25, 2003

---------------------------------------------------------------------

* Profile

Discovery Date April 24, 2003
Magnitude 18.8 mag
Discoverer Lincoln Laboratory Near-Earth Asteroid Research project

* Pictures

* Orbital Elements

Epoch 2003 May 1.0 TT = JDT 2452760.5
T 2003 May 17.97116 TT                                  MPC
q   2.1785469            (2000.0)            P               Q
z  +0.0261722      Peri.  155.08304     -0.27279638     +0.16844369
 +/-0.0000000      Node    79.83763     -0.96174902     -0.07324767
e   0.9429826      Incl.   74.21896     +0.02491902     -0.98298601

* Finding Charts

* Magnitudes Graph

        m1 = 13.5 + 5 log d + 10.0 log r

---------------------------------------------------------------------

The orbital elements are published on M.P.E.C. 2003-P17.
The charts are made with StellaNavigator Ver.2.0 for Windows (AstroArts / ASCII).
The magnitudes graphs are made with Comet for Windows.

---------------------------------------------------------------------

Copyright(C) Seiichi Yoshida (comet@aerith.net). All rights reserved.